Location: *
(51.1248°S, 108.4023°W)
Time: 03:55:59
(UTC+00:00)

OBJECT-B - Pass Details

Date: 15 June 2021
Orbit: 414 x 423 km, 97.0° (Epoch: 05 June)

Event Time Altitude Azimuth Distance (km) Brightness Sun altitude
Rises 14:25:11 0° 28° (NNE) 2,383 5.6 -7.6°
Reaches altitude 10° 14:27:13 10° 34° (NE) 1,527 4.7 -7.3°
Maximum altitude 14:30:22 46° 108° (ESE) 596 1.9 -6.9°
Drops below altitude 10° 14:33:34 10° 182° (S) 1,555 3.3 -6.5°
Sets 14:35:39 0° 187° (S) 2,432 4.3 -6.2°
